Погода в Лесном

Россия / Алтайский край     52°28′08″N   85°15′06″E
темп.,
°C
ветер,
м/с
пор.,
м/с
влажн.,
%
обл.,
%
осадки,
мм/ч
давл.,
гПа
погр.,
м
27 октября, ср
ср2701:00+11зюз8173960 0.0 1013681
04:00+6зсз71175100 0.0 1019671
07:00+4з4963100 0.0 10241045
10:00+4сз3453100 0.0 1027794
13:00+4зсз2344100 0.0 1027977
16:00+5з2341100 0.0 10261051
19:00+3юз1257100 0.0 1027114
22:00+1зюз1270100 0.0 102880
28 октября, чт
чт2801:000зсз1153100 0.0 102914
04:00−1сз115056 0.0 103010
07:00−2в1153100 0.0 103110
10:000в1250100 0.0 1031114
13:00+3в2246100 0.0 1030515
16:00+4вюв114513 0.0 1029621
19:00+1вюв11625 0.0 102910
22:000ююв22865 0.0 102810
29 октября, пт
пт2901:000ююв229016 0.0 102812
04:00+1ююв238591 0.0 102791
07:00+1юв3483100 0.0 102796
10:00+3ююв2476100 0.0 1027126
13:00+7ю235895 0.0 1026285
16:00+9ююз2654100 0.0 1025520
19:00+6ююз336799 0.0 102641
22:00+5ююз2378100 0.0 102622
30 октября, сб
сб3001:00+4ююз2283100 0.0 102628
04:00+3ю3381100 0.0 102534
07:00+3ююз3675100 0.0 102596
10:00+7зюз71752100 0.0 10251225
13:00+8зюз101937100 0.0 10261844
16:00+2з91681100 0.1 10301188
19:00+1зсз5106964 0.6 1033942
22:00−2зюз225578 0.0 103532
31 октября, вс
вс3101:00−2ююз2256100 0.0 103437
04:00−3ююз1158100 0.0 103211
07:00−2ююв3485100 0.0 103079
10:00−1ююв2393100 0.3 1028184
13:00+2ююз2373100 0.5 1024415
16:00+4ююз2369100 0.0 1021436
19:00+1юз3888100 0.2 1021462
22:00+1зюз61497100 1.9 1020826